Weather at Tilichiki Airport

Public forecast

Using degrees Celsius for public forecast. Weather courtesy of forecast.io.

Closest aviation weather report (METAR) to Tilichiki Airport

Closest report is Sokol Airport, 457.3 nm (846.9 km) W. Retrieved 2021/05/12 05:30 UTC (0 seconds ago):

UHMM 120530Z 22006MPS 9999 SCT040 12/M02 Q1012 R10/CLRD70 NOSIG RMK QFE744 R28/25007MPS

Closest aviation forecast (TAF) to Tilichiki Airport

Forecast is more than 12 hours old.

Closest forecast is Severo-Evensk Airport, 217.4 nm (402.6 km) WNW. Retrieved 2013/05/23 03:00 UTC (8 years ago):

TAF UHMW 230130Z 2303/2309 22004MPS 9999 NSC